Year,Month,Day,Hour,Minute,Value (Times are PST for temperature in C)
2008,06,29,00,00,17.60
2008,06,29,00,01,17.60
2008,06,29,00,02,17.60
2008,06,29,00,03,17.60
2008,06,29,00,04,17.60
2008,06,29,00,05,17.60
2008,06,29,00,06,17.50
2008,06,29,00,07,17.50
2008,06,29,00,08,17.50
2008,06,29,00,09,17.50
2008,06,29,00,10,17.50
2008,06,29,00,11,17.50
2008,06,29,00,12,17.50
2008,06,29,00,13,17.40
2008,06,29,00,14,17.40
2008,06,29,00,15,17.40
2008,06,29,00,16,17.40
2008,06,29,00,17,17.40
2008,06,29,00,18,17.30
2008,06,29,00,19,17.30
2008,06,29,00,20,17.30
2008,06,29,00,21,17.30
2008,06,29,00,22,17.30
2008,06,29,00,23,17.30
2008,06,29,00,24,17.20
2008,06,29,00,25,17.20
2008,06,29,00,26,17.20
2008,06,29,00,27,17.20
2008,06,29,00,28,17.20
2008,06,29,00,29,17.20
2008,06,29,00,30,17.20
2008,06,29,00,31,17.20
2008,06,29,00,32,17.20
2008,06,29,00,33,17.10
2008,06,29,00,34,17.10
2008,06,29,00,35,17.10
2008,06,29,00,36,17.10
2008,06,29,00,37,17.10
2008,06,29,00,38,17.10
2008,06,29,00,39,17.10
2008,06,29,00,40,17.10
2008,06,29,00,41,17.10
2008,06,29,00,42,17.10
2008,06,29,00,43,17.10
2008,06,29,00,44,17.10
2008,06,29,00,45,17.10
2008,06,29,00,46,17.00
2008,06,29,00,47,17.00
2008,06,29,00,48,17.00
2008,06,29,00,49,17.00
2008,06,29,00,50,17.00
2008,06,29,00,51,16.90
2008,06,29,00,52,16.90
2008,06,29,00,53,16.90
2008,06,29,00,54,16.90
2008,06,29,00,55,16.90
2008,06,29,00,56,16.90
2008,06,29,00,57,16.90
2008,06,29,00,58,16.90
2008,06,29,00,59,16.90
2008,06,29,01,00,16.90
2008,06,29,01,01,16.90
2008,06,29,01,02,16.80
2008,06,29,01,03,16.80
2008,06,29,01,04,16.80
2008,06,29,01,05,16.80
2008,06,29,01,06,16.80
2008,06,29,01,07,16.80
2008,06,29,01,08,16.80
2008,06,29,01,09,16.80
2008,06,29,01,10,16.80
2008,06,29,01,11,16.80
2008,06,29,01,12,16.70
2008,06,29,01,13,16.70
2008,06,29,01,14,16.70
2008,06,29,01,15,16.70
2008,06,29,01,16,16.70
2008,06,29,01,17,16.70
2008,06,29,01,18,16.60
2008,06,29,01,19,16.60
2008,06,29,01,20,16.60
2008,06,29,01,21,16.60
2008,06,29,01,22,16.60
2008,06,29,01,23,16.60
2008,06,29,01,24,16.60
2008,06,29,01,25,16.50
2008,06,29,01,26,16.50
2008,06,29,01,27,16.50
2008,06,29,01,28,16.50
2008,06,29,01,29,16.50
2008,06,29,01,30,16.40
2008,06,29,01,31,16.40
2008,06,29,01,32,16.40
2008,06,29,01,33,16.40
2008,06,29,01,34,16.40
2008,06,29,01,35,16.40
2008,06,29,01,36,16.30
2008,06,29,01,37,16.30
2008,06,29,01,38,16.30
2008,06,29,01,39,16.30
2008,06,29,01,40,16.30
2008,06,29,01,41,16.30
2008,06,29,01,42,16.20
2008,06,29,01,43,16.20
2008,06,29,01,44,16.20
2008,06,29,01,45,16.20
2008,06,29,01,46,16.20
2008,06,29,01,47,16.10
2008,06,29,01,48,16.10
2008,06,29,01,49,16.10
2008,06,29,01,50,16.10
2008,06,29,01,51,16.10
2008,06,29,01,52,16.10
2008,06,29,01,53,16.10
2008,06,29,01,54,16.10
2008,06,29,01,55,16.00
2008,06,29,01,56,16.00
2008,06,29,01,57,16.00
2008,06,29,01,58,15.90
2008,06,29,01,59,15.90
2008,06,29,02,00,15.90
2008,06,29,02,01,15.90
2008,06,29,02,02,15.90
2008,06,29,02,03,15.80
2008,06,29,02,04,15.80
2008,06,29,02,05,15.80
2008,06,29,02,06,15.80
2008,06,29,02,07,15.80
2008,06,29,02,08,15.80
2008,06,29,02,09,15.80
2008,06,29,02,10,15.80
2008,06,29,02,11,15.80
2008,06,29,02,12,15.80
2008,06,29,02,13,15.70
2008,06,29,02,14,15.70
2008,06,29,02,15,15.70
2008,06,29,02,16,15.70
2008,06,29,02,17,15.70
2008,06,29,02,18,15.70
2008,06,29,02,19,15.70
2008,06,29,02,20,15.70
2008,06,29,02,21,15.60
2008,06,29,02,22,15.60
2008,06,29,02,23,15.60
2008,06,29,02,24,15.60
2008,06,29,02,25,15.60
2008,06,29,02,26,15.50
2008,06,29,02,27,15.50
2008,06,29,02,28,15.50
2008,06,29,02,29,15.50
2008,06,29,02,30,15.40
2008,06,29,02,31,15.40
2008,06,29,02,32,15.40
2008,06,29,02,33,15.40
2008,06,29,02,34,15.40
2008,06,29,02,35,15.40
2008,06,29,02,36,15.30
2008,06,29,02,37,15.30
2008,06,29,02,38,15.30
2008,06,29,02,39,15.30
2008,06,29,02,40,15.30
2008,06,29,02,41,15.30
2008,06,29,02,42,15.30
2008,06,29,02,43,15.30
2008,06,29,02,44,15.20
2008,06,29,02,45,15.20
2008,06,29,02,46,15.20
2008,06,29,02,47,15.20
2008,06,29,02,48,15.20
2008,06,29,02,49,15.20
2008,06,29,02,50,15.20
2008,06,29,02,51,15.20
2008,06,29,02,52,15.10
2008,06,29,02,53,15.10
2008,06,29,02,54,15.10
2008,06,29,02,55,15.10
2008,06,29,02,56,15.10
2008,06,29,02,57,15.10
2008,06,29,02,58,15.00
2008,06,29,02,59,15.00
2008,06,29,03,00,15.00
2008,06,29,03,01,15.00
2008,06,29,03,02,15.00
2008,06,29,03,03,15.00
2008,06,29,03,04,15.00
2008,06,29,03,05,15.00
2008,06,29,03,06,15.00
2008,06,29,03,07,15.00
2008,06,29,03,08,15.00
2008,06,29,03,09,15.00
2008,06,29,03,10,15.00
2008,06,29,03,11,15.00
2008,06,29,03,12,15.00
2008,06,29,03,13,15.00
2008,06,29,03,14,15.00
2008,06,29,03,15,15.00
2008,06,29,03,16,15.00
2008,06,29,03,17,15.00
2008,06,29,03,18,15.00
2008,06,29,03,19,15.00
2008,06,29,03,20,15.00
2008,06,29,03,21,15.00
2008,06,29,03,22,15.00
2008,06,29,03,23,15.00
2008,06,29,03,24,15.00
2008,06,29,03,25,15.00
2008,06,29,03,26,14.90
2008,06,29,03,27,14.90
2008,06,29,03,28,14.80
2008,06,29,03,29,14.80
2008,06,29,03,30,14.80
2008,06,29,03,31,14.80
2008,06,29,03,32,14.80
2008,06,29,03,33,14.80
2008,06,29,03,34,14.80
2008,06,29,03,35,14.80
2008,06,29,03,36,14.80
2008,06,29,03,37,14.80
2008,06,29,03,38,14.70
2008,06,29,03,39,14.70
2008,06,29,03,40,14.70
2008,06,29,03,41,14.70
2008,06,29,03,42,14.70
2008,06,29,03,43,14.70
2008,06,29,03,44,14.70
2008,06,29,03,45,14.70
2008,06,29,03,46,14.70
2008,06,29,03,47,14.60
2008,06,29,03,48,14.60
2008,06,29,03,49,14.60
2008,06,29,03,50,14.60
2008,06,29,03,51,14.60
2008,06,29,03,52,14.60
2008,06,29,03,53,14.60
2008,06,29,03,54,14.60
2008,06,29,03,55,14.60
2008,06,29,03,56,14.50
2008,06,29,03,57,14.50
2008,06,29,03,58,14.50
2008,06,29,03,59,14.50
2008,06,29,04,00,14.50
2008,06,29,04,01,14.50
2008,06,29,04,02,14.50
2008,06,29,04,03,14.50
2008,06,29,04,05,14.40
2008,06,29,04,06,14.40
2008,06,29,04,07,14.40
2008,06,29,04,08,14.40
2008,06,29,04,09,14.40
2008,06,29,04,10,14.40
2008,06,29,04,11,14.40
2008,06,29,04,12,14.40
2008,06,29,04,13,14.40
2008,06,29,04,14,14.30
2008,06,29,04,15,14.30
2008,06,29,04,16,14.30
2008,06,29,04,17,14.30
2008,06,29,04,18,14.30
2008,06,29,04,19,14.30
2008,06,29,04,20,14.20
2008,06,29,04,21,14.20
2008,06,29,04,22,14.20
2008,06,29,04,23,14.20
2008,06,29,04,24,14.20
2008,06,29,04,25,14.20
2008,06,29,04,26,14.20
2008,06,29,04,27,14.20
2008,06,29,04,28,14.20
2008,06,29,04,29,14.20
2008,06,29,04,30,14.20
2008,06,29,04,31,14.20
2008,06,29,04,32,14.20
2008,06,29,04,33,14.20
2008,06,29,04,34,14.20
2008,06,29,04,35,14.10
2008,06,29,04,36,14.10
2008,06,29,04,37,14.10
2008,06,29,04,38,14.10
2008,06,29,04,39,14.10
2008,06,29,04,40,14.10
2008,06,29,04,41,14.10
2008,06,29,04,42,14.10
2008,06,29,04,43,14.10
2008,06,29,04,44,14.10
2008,06,29,04,45,14.10
2008,06,29,04,46,14.10
2008,06,29,04,47,14.10
2008,06,29,04,48,14.00
2008,06,29,04,49,14.00
2008,06,29,04,50,14.00
2008,06,29,04,51,14.00
2008,06,29,04,52,13.90
2008,06,29,04,53,13.90
2008,06,29,04,54,13.90
2008,06,29,04,55,13.90
2008,06,29,04,56,13.90
2008,06,29,04,57,13.90
2008,06,29,04,58,13.90
2008,06,29,04,59,13.90
2008,06,29,05,00,13.90
2008,06,29,05,01,13.80
2008,06,29,05,02,13.80
2008,06,29,05,03,13.80
2008,06,29,05,04,13.80
2008,06,29,05,05,13.80
2008,06,29,05,06,13.80
2008,06,29,05,07,13.80
2008,06,29,05,08,13.80
2008,06,29,05,09,13.80
2008,06,29,05,10,13.80
2008,06,29,05,11,13.80
2008,06,29,05,12,13.80
2008,06,29,05,13,13.80
2008,06,29,05,14,13.80
2008,06,29,05,15,13.80
2008,06,29,05,16,13.80
2008,06,29,05,17,13.80
2008,06,29,05,18,13.80
2008,06,29,05,19,13.80
2008,06,29,05,20,13.80
2008,06,29,05,21,13.70
2008,06,29,05,22,13.70
2008,06,29,05,23,13.70
2008,06,29,05,24,13.70
2008,06,29,05,25,13.70
2008,06,29,05,26,13.70
2008,06,29,05,27,13.70
2008,06,29,05,28,13.60
2008,06,29,05,29,13.60
2008,06,29,05,30,13.60
2008,06,29,05,31,13.60
2008,06,29,05,32,13.60
2008,06,29,05,33,13.60
2008,06,29,05,34,13.60
2008,06,29,05,35,13.60
2008,06,29,05,36,13.60
2008,06,29,05,37,13.60
2008,06,29,05,38,13.60
2008,06,29,05,39,13.60
2008,06,29,05,40,13.50
2008,06,29,05,41,13.50
2008,06,29,05,42,13.50
2008,06,29,05,43,13.50
2008,06,29,05,44,13.50
2008,06,29,05,45,13.50
2008,06,29,05,46,13.50
2008,06,29,05,47,13.50
2008,06,29,05,48,13.50
2008,06,29,05,49,13.50
2008,06,29,05,50,13.50
2008,06,29,05,51,13.50
2008,06,29,05,52,13.50
2008,06,29,05,53,13.50
2008,06,29,05,54,13.60
2008,06,29,05,55,13.60
2008,06,29,05,56,13.60
2008,06,29,05,57,13.60
2008,06,29,05,58,13.50
2008,06,29,05,59,13.50
2008,06,29,06,00,13.50
2008,06,29,06,01,13.50
2008,06,29,06,02,13.50
2008,06,29,06,03,13.50
2008,06,29,06,04,13.50
2008,06,29,06,05,13.50
2008,06,29,06,06,13.50
2008,06,29,06,07,13.40
2008,06,29,06,08,13.40
2008,06,29,06,09,13.40
2008,06,29,06,10,13.40
2008,06,29,06,11,13.40
2008,06,29,06,12,13.40
2008,06,29,06,13,13.40
2008,06,29,06,14,13.40
2008,06,29,06,15,13.40
2008,06,29,06,16,13.40
2008,06,29,06,17,13.40
2008,06,29,06,18,13.40
2008,06,29,06,19,13.40
2008,06,29,06,20,13.40
2008,06,29,06,21,13.50
2008,06,29,06,22,13.50
2008,06,29,06,23,13.50
2008,06,29,06,24,13.50
2008,06,29,06,25,13.50
2008,06,29,06,26,13.50
2008,06,29,06,27,13.50
2008,06,29,06,28,13.60
2008,06,29,06,29,13.60
2008,06,29,06,30,13.60
2008,06,29,06,31,13.60
2008,06,29,06,32,13.50
2008,06,29,06,33,13.50
2008,06,29,06,34,13.60
2008,06,29,06,35,13.50
2008,06,29,06,36,13.60
2008,06,29,06,37,13.60
2008,06,29,06,38,13.60
2008,06,29,06,39,13.60
2008,06,29,06,40,13.60
2008,06,29,06,41,13.50
2008,06,29,06,42,13.60
2008,06,29,06,43,13.60
2008,06,29,06,44,13.60
2008,06,29,06,45,13.60
2008,06,29,06,46,13.60
2008,06,29,06,47,13.60
2008,06,29,06,48,13.60
2008,06,29,06,49,13.60
2008,06,29,06,50,13.60
2008,06,29,06,51,13.60
2008,06,29,06,52,13.70
2008,06,29,06,53,13.70
2008,06,29,06,54,13.70
2008,06,29,06,55,13.70
2008,06,29,06,56,13.70
2008,06,29,06,57,13.70
2008,06,29,06,58,13.70
2008,06,29,06,59,13.80
2008,06,29,07,00,13.80
2008,06,29,07,01,13.80
2008,06,29,07,02,13.90
2008,06,29,07,03,13.90
2008,06,29,07,04,14.00
2008,06,29,07,05,14.00
2008,06,29,07,06,14.10
2008,06,29,07,07,14.10
2008,06,29,07,08,14.10
2008,06,29,07,09,14.20
2008,06,29,07,10,14.20
2008,06,29,07,11,14.30
2008,06,29,07,12,14.40
2008,06,29,07,13,14.40
2008,06,29,07,14,14.50
2008,06,29,07,15,14.60
2008,06,29,07,16,14.70
2008,06,29,07,17,14.90
2008,06,29,07,18,15.00
2008,06,29,07,19,15.00
2008,06,29,07,20,15.00
2008,06,29,07,21,15.00
2008,06,29,07,22,15.10
2008,06,29,07,23,15.20
2008,06,29,07,24,15.40
2008,06,29,07,25,15.50
2008,06,29,07,26,15.70
2008,06,29,07,27,15.90
2008,06,29,07,28,16.10
2008,06,29,07,29,16.20
2008,06,29,07,30,16.40
2008,06,29,07,31,16.60
2008,06,29,07,32,16.70
2008,06,29,07,33,16.90
2008,06,29,07,34,16.90
2008,06,29,07,35,17.00
2008,06,29,07,36,17.10
2008,06,29,07,37,17.10
2008,06,29,07,38,17.10
2008,06,29,07,39,17.20
2008,06,29,07,40,17.20
2008,06,29,07,41,17.30
2008,06,29,07,42,17.30
2008,06,29,07,43,17.40
2008,06,29,07,44,17.50
2008,06,29,07,45,17.50
2008,06,29,07,46,17.60
2008,06,29,07,47,17.70
2008,06,29,07,48,17.70
2008,06,29,07,49,17.90
2008,06,29,07,50,18.00
2008,06,29,07,51,18.10
2008,06,29,07,52,18.20
2008,06,29,07,53,18.30
2008,06,29,07,54,18.50
2008,06,29,07,55,18.60
2008,06,29,07,56,18.70
2008,06,29,07,57,18.70
2008,06,29,07,58,18.80
2008,06,29,07,59,18.90
2008,06,29,08,00,18.90
2008,06,29,08,01,19.00
2008,06,29,08,02,19.20
2008,06,29,08,03,19.30
2008,06,29,08,04,19.40
2008,06,29,08,05,19.50
2008,06,29,08,06,19.60
2008,06,29,08,07,19.70
2008,06,29,08,08,19.80
2008,06,29,08,09,19.90
2008,06,29,08,10,19.90
2008,06,29,08,11,19.90
2008,06,29,08,12,19.90
2008,06,29,08,13,19.90
2008,06,29,08,14,19.90
2008,06,29,08,15,19.90
2008,06,29,08,16,19.90
2008,06,29,08,17,20.00
2008,06,29,08,18,20.00
2008,06,29,08,19,20.00
2008,06,29,08,20,20.10
2008,06,29,08,21,20.20
2008,06,29,08,22,20.30
2008,06,29,08,23,20.40
2008,06,29,08,24,20.50
2008,06,29,08,25,20.60
2008,06,29,08,26,20.70
2008,06,29,08,27,20.80
2008,06,29,08,28,20.90
2008,06,29,08,29,21.00
2008,06,29,08,30,21.10
2008,06,29,08,31,21.20
2008,06,29,08,32,21.20
2008,06,29,08,33,21.30
2008,06,29,08,34,21.40
2008,06,29,08,35,21.50
2008,06,29,08,36,21.50
2008,06,29,08,37,21.60
2008,06,29,08,38,21.70
2008,06,29,08,39,21.80
2008,06,29,08,40,21.90
2008,06,29,08,41,22.00
2008,06,29,08,42,22.00
2008,06,29,08,43,22.00
2008,06,29,08,44,22.00
2008,06,29,08,45,22.00
2008,06,29,08,46,22.10
2008,06,29,08,47,22.10
2008,06,29,08,48,22.10
2008,06,29,08,49,22.10
2008,06,29,08,50,22.20
2008,06,29,08,51,22.20
2008,06,29,08,52,22.30
2008,06,29,08,53,22.40
2008,06,29,08,54,22.40
2008,06,29,08,55,22.50
2008,06,29,08,56,22.50
2008,06,29,08,57,22.50
2008,06,29,08,58,22.60
2008,06,29,08,59,22.70
2008,06,29,09,00,22.80
2008,06,29,09,01,22.90
2008,06,29,09,02,23.00
2008,06,29,09,03,23.10
2008,06,29,09,04,23.20
2008,06,29,09,05,23.10
2008,06,29,09,06,23.10
2008,06,29,09,07,23.20
2008,06,29,09,08,23.20
2008,06,29,09,09,23.20
2008,06,29,09,10,23.10
2008,06,29,09,11,23.10
2008,06,29,09,12,23.10
2008,06,29,09,13,23.10
2008,06,29,09,14,23.20
2008,06,29,09,15,23.20
2008,06,29,09,16,23.30
2008,06,29,09,17,23.40
2008,06,29,09,18,23.40
2008,06,29,09,19,23.50
2008,06,29,09,20,23.60
2008,06,29,09,21,23.70
2008,06,29,09,22,23.70
2008,06,29,09,23,23.80
2008,06,29,09,24,23.80
2008,06,29,09,25,23.90
2008,06,29,09,26,23.90
2008,06,29,09,27,24.00
2008,06,29,09,28,24.10
2008,06,29,09,29,24.10
2008,06,29,09,30,24.20
2008,06,29,09,31,24.30
2008,06,29,09,32,24.30
2008,06,29,09,33,24.20
2008,06,29,09,34,24.20
2008,06,29,09,35,24.20
2008,06,29,09,36,24.10
2008,06,29,09,37,24.10
2008,06,29,09,38,24.10
2008,06,29,09,39,24.20
2008,06,29,09,40,24.20
2008,06,29,09,41,24.20
2008,06,29,09,42,24.20
2008,06,29,09,43,24.20
2008,06,29,09,44,24.20
2008,06,29,09,45,24.30
2008,06,29,09,46,24.30
2008,06,29,09,47,24.40
2008,06,29,09,48,24.50
2008,06,29,09,49,24.70
2008,06,29,09,50,24.80
2008,06,29,09,51,24.80
2008,06,29,09,52,24.90
2008,06,29,09,53,25.00
2008,06,29,09,54,25.10
2008,06,29,09,55,25.20
2008,06,29,09,56,25.30
2008,06,29,09,57,25.30
2008,06,29,09,58,25.40
2008,06,29,09,59,25.40
2008,06,29,10,00,25.50
2008,06,29,10,01,25.60
2008,06,29,10,02,25.70
2008,06,29,10,03,25.80
2008,06,29,10,04,25.80
2008,06,29,10,05,25.90
2008,06,29,10,06,26.00
2008,06,29,10,07,26.10
2008,06,29,10,08,26.20
2008,06,29,10,09,26.30
2008,06,29,10,10,26.30
2008,06,29,10,11,26.30
2008,06,29,10,12,26.40
2008,06,29,10,13,26.40
2008,06,29,10,14,26.50
2008,06,29,10,15,26.50
2008,06,29,10,16,26.60
2008,06,29,10,17,26.60
2008,06,29,10,18,26.60
2008,06,29,10,19,26.60
2008,06,29,10,20,26.60
2008,06,29,10,21,26.60
2008,06,29,10,22,26.60
2008,06,29,10,23,26.60
2008,06,29,10,24,26.60
2008,06,29,10,25,26.60
2008,06,29,10,26,26.60
2008,06,29,10,27,26.60
2008,06,29,10,28,26.60
2008,06,29,10,29,26.60
2008,06,29,10,30,26.60
2008,06,29,10,31,26.60
2008,06,29,10,32,26.60
2008,06,29,10,33,26.60
2008,06,29,10,34,26.70
2008,06,29,10,35,26.70
2008,06,29,10,36,26.70
2008,06,29,10,37,26.70
2008,06,29,10,38,26.70
2008,06,29,10,39,26.70
2008,06,29,10,40,26.80
2008,06,29,10,41,26.80
2008,06,29,10,42,26.80
2008,06,29,10,43,26.90
2008,06,29,10,44,27.00
2008,06,29,10,45,27.10
2008,06,29,10,46,27.10
2008,06,29,10,47,27.10
2008,06,29,10,48,27.10
2008,06,29,10,49,27.10
2008,06,29,10,50,27.10
2008,06,29,10,51,27.10
2008,06,29,10,52,27.20
2008,06,29,10,53,27.20
2008,06,29,10,54,27.30
2008,06,29,10,55,27.30
2008,06,29,10,56,27.40
2008,06,29,10,57,27.40
2008,06,29,10,58,27.50
2008,06,29,10,59,27.50
2008,06,29,11,00,27.50
2008,06,29,11,01,27.50
2008,06,29,11,02,27.60
2008,06,29,11,03,27.70
2008,06,29,11,04,27.70
2008,06,29,11,05,27.80
2008,06,29,11,06,27.90
2008,06,29,11,07,28.00
2008,06,29,11,08,28.10
2008,06,29,11,09,28.20
2008,06,29,11,10,28.20
2008,06,29,11,11,28.20
2008,06,29,11,12,28.20
2008,06,29,11,13,28.20
2008,06,29,11,14,28.20
2008,06,29,11,15,28.30
2008,06,29,11,16,28.30
2008,06,29,11,17,28.30
2008,06,29,11,18,28.30
2008,06,29,11,19,28.30
2008,06,29,11,20,28.30
2008,06,29,11,21,28.30
2008,06,29,11,22,28.30
2008,06,29,11,23,28.30
2008,06,29,11,24,28.40
2008,06,29,11,25,28.40
2008,06,29,11,26,28.40
2008,06,29,11,27,28.40
2008,06,29,11,28,28.50
2008,06,29,11,29,28.50
2008,06,29,11,30,28.60
2008,06,29,11,31,28.50
2008,06,29,11,32,28.60
2008,06,29,11,33,28.60
2008,06,29,11,34,28.60
2008,06,29,11,35,28.60
2008,06,29,11,36,28.60
2008,06,29,11,37,28.50
2008,06,29,11,38,28.50
2008,06,29,11,39,28.50
2008,06,29,11,40,28.50
2008,06,29,11,41,28.40
2008,06,29,11,42,28.40
2008,06,29,11,43,28.40
2008,06,29,11,44,28.50
2008,06,29,11,45,28.50
2008,06,29,11,46,28.50
2008,06,29,11,47,28.50
2008,06,29,11,48,28.60
2008,06,29,11,49,28.70
2008,06,29,11,50,28.70
2008,06,29,11,51,28.80
2008,06,29,11,52,28.80
2008,06,29,11,53,28.80
2008,06,29,11,54,28.80
2008,06,29,11,55,28.80
2008,06,29,11,56,28.90
2008,06,29,11,57,28.90
2008,06,29,11,58,29.00
2008,06,29,11,59,29.10
2008,06,29,12,00,29.10
2008,06,29,12,01,29.20
2008,06,29,12,02,29.20
2008,06,29,12,03,29.30
2008,06,29,12,04,29.30
2008,06,29,12,05,29.30
2008,06,29,12,06,29.20
2008,06,29,12,07,29.10
2008,06,29,12,08,29.00
2008,06,29,12,09,28.90
2008,06,29,12,10,28.90
2008,06,29,12,11,28.80
2008,06,29,12,12,28.90
2008,06,29,12,13,28.90
2008,06,29,12,14,28.90
2008,06,29,12,15,29.00
2008,06,29,12,16,29.00
2008,06,29,12,17,29.10
2008,06,29,12,18,29.10
2008,06,29,12,19,29.10
2008,06,29,12,20,29.10
2008,06,29,12,21,29.10
2008,06,29,12,22,29.10
2008,06,29,12,23,29.10
2008,06,29,12,24,29.20
2008,06,29,12,25,29.10
2008,06,29,12,26,29.00
2008,06,29,12,27,28.90
2008,06,29,12,28,28.90
2008,06,29,12,29,28.90
2008,06,29,12,30,28.90
2008,06,29,12,31,29.00
2008,06,29,12,32,29.00
2008,06,29,12,33,29.10
2008,06,29,12,34,29.30
2008,06,29,12,35,29.40
2008,06,29,12,36,29.40
2008,06,29,12,37,29.40
2008,06,29,12,38,29.40
2008,06,29,12,39,29.40
2008,06,29,12,40,29.50
2008,06,29,12,41,29.50
2008,06,29,12,42,29.50
2008,06,29,12,43,29.60
2008,06,29,12,44,29.60
2008,06,29,12,45,29.60
2008,06,29,12,46,29.70
2008,06,29,12,47,29.80
2008,06,29,12,48,29.80
2008,06,29,12,49,29.80
2008,06,29,12,50,29.90
2008,06,29,12,51,29.90
2008,06,29,12,52,29.90
2008,06,29,12,53,29.90
2008,06,29,12,54,29.90
2008,06,29,12,55,29.90
2008,06,29,12,56,29.90
2008,06,29,12,57,29.90
2008,06,29,12,58,29.80
2008,06,29,12,59,29.80
2008,06,29,13,00,29.80
2008,06,29,13,01,29.80
2008,06,29,13,02,29.80
2008,06,29,13,03,29.80
2008,06,29,13,04,29.80
2008,06,29,13,05,29.80
2008,06,29,13,06,29.90
2008,06,29,13,07,29.90
2008,06,29,13,08,29.90
2008,06,29,13,09,29.90
2008,06,29,13,10,29.90
2008,06,29,13,11,29.90
2008,06,29,13,12,29.90
2008,06,29,13,13,29.90
2008,06,29,13,14,29.90
2008,06,29,13,15,30.00
2008,06,29,13,16,30.00
2008,06,29,13,17,30.10
2008,06,29,13,18,30.10
2008,06,29,13,19,30.10
2008,06,29,13,20,30.10
2008,06,29,13,21,30.10
2008,06,29,13,22,30.10
2008,06,29,13,23,30.10
2008,06,29,13,24,30.20
2008,06,29,13,25,30.20
2008,06,29,13,26,30.20
2008,06,29,13,27,30.20
2008,06,29,13,28,30.20
2008,06,29,13,29,30.20
2008,06,29,13,30,30.30
2008,06,29,13,31,30.40
2008,06,29,13,32,30.50
2008,06,29,13,33,30.60
2008,06,29,13,34,30.60
2008,06,29,13,35,30.70
2008,06,29,13,36,30.80
2008,06,29,13,37,30.80
2008,06,29,13,38,30.90
2008,06,29,13,39,30.90
2008,06,29,13,40,31.00
2008,06,29,13,41,31.00
2008,06,29,13,42,31.00
2008,06,29,13,43,31.00
2008,06,29,13,44,30.90
2008,06,29,13,45,30.90
2008,06,29,13,46,30.90
2008,06,29,13,47,30.90
2008,06,29,13,48,30.90
2008,06,29,13,49,30.90
2008,06,29,13,50,31.00
2008,06,29,13,51,31.00
2008,06,29,13,52,31.00
2008,06,29,13,53,31.00
2008,06,29,13,54,31.00
2008,06,29,13,55,31.10
2008,06,29,13,56,31.10
2008,06,29,13,57,31.10
2008,06,29,13,58,31.10
2008,06,29,13,59,31.10
2008,06,29,14,00,31.20
2008,06,29,14,01,31.30
2008,06,29,14,02,31.40
2008,06,29,14,03,31.50
2008,06,29,14,04,31.60
2008,06,29,14,05,31.70
2008,06,29,14,06,31.70
2008,06,29,14,07,31.70
2008,06,29,14,08,31.60
2008,06,29,14,09,31.60
2008,06,29,14,10,31.60
2008,06,29,14,11,31.60
2008,06,29,14,12,31.60
2008,06,29,14,13,31.60
2008,06,29,14,14,31.60
2008,06,29,14,15,31.60
2008,06,29,14,16,31.60
2008,06,29,14,17,31.60
2008,06,29,14,18,31.60
2008,06,29,14,19,31.60
2008,06,29,14,20,31.60
2008,06,29,14,21,31.50
2008,06,29,14,22,31.50
2008,06,29,14,23,31.50
2008,06,29,14,24,31.50
2008,06,29,14,25,31.60
2008,06,29,14,26,31.60
2008,06,29,14,27,31.60
2008,06,29,14,28,31.60
2008,06,29,14,29,31.70
2008,06,29,14,30,31.70
2008,06,29,14,31,31.80
2008,06,29,14,32,31.80
2008,06,29,14,33,31.90
2008,06,29,14,34,32.00
2008,06,29,14,35,32.10
2008,06,29,14,36,32.20
2008,06,29,14,37,32.30
2008,06,29,14,38,32.40
2008,06,29,14,39,32.60
2008,06,29,14,40,32.60
2008,06,29,14,41,32.60
2008,06,29,14,42,32.60
2008,06,29,14,43,32.50
2008,06,29,14,44,32.40
2008,06,29,14,45,32.40
2008,06,29,14,46,32.40
2008,06,29,14,47,32.40
2008,06,29,14,48,32.40
2008,06,29,14,49,32.40
2008,06,29,14,50,32.40
2008,06,29,14,51,32.50
2008,06,29,14,52,32.50
2008,06,29,14,53,32.50
2008,06,29,14,54,32.50
2008,06,29,14,55,32.60
2008,06,29,14,56,32.60
2008,06,29,14,57,32.60
2008,06,29,14,58,32.60
2008,06,29,14,59,32.70
2008,06,29,15,00,32.70
2008,06,29,15,01,32.70
2008,06,29,15,02,32.60
2008,06,29,15,03,32.60
2008,06,29,15,04,32.60
2008,06,29,15,05,32.60
2008,06,29,15,06,32.60
2008,06,29,15,07,32.60
2008,06,29,15,08,32.60
2008,06,29,15,09,32.60
2008,06,29,15,10,32.60
2008,06,29,15,11,32.60
2008,06,29,15,12,32.60
2008,06,29,15,13,32.60
2008,06,29,15,14,32.60
2008,06,29,15,15,32.50
2008,06,29,15,16,32.50
2008,06,29,15,17,32.50
2008,06,29,15,18,32.50
2008,06,29,15,19,32.50
2008,06,29,15,20,32.50
2008,06,29,15,21,32.60
2008,06,29,15,22,32.60
2008,06,29,15,23,32.70
2008,06,29,15,24,32.80
2008,06,29,15,25,32.80
2008,06,29,15,26,32.90
2008,06,29,15,27,32.90
2008,06,29,15,28,32.90
2008,06,29,15,29,32.90
2008,06,29,15,30,33.00
2008,06,29,15,31,33.00
2008,06,29,15,32,33.10
2008,06,29,15,33,33.00
2008,06,29,15,34,33.00
2008,06,29,15,35,32.90
2008,06,29,15,36,32.90
2008,06,29,15,37,32.80
2008,06,29,15,38,32.80
2008,06,29,15,39,32.90
2008,06,29,15,40,32.90
2008,06,29,15,41,32.90
2008,06,29,15,42,32.90
2008,06,29,15,43,32.90
2008,06,29,15,44,32.90
2008,06,29,15,45,32.90
2008,06,29,15,46,32.90
2008,06,29,15,47,32.90
2008,06,29,15,48,32.90
2008,06,29,15,49,32.90
2008,06,29,15,50,32.90
2008,06,29,15,51,33.00
2008,06,29,15,52,33.10
2008,06,29,15,53,33.10
2008,06,29,15,54,33.20
2008,06,29,15,55,33.30
2008,06,29,15,56,33.30
2008,06,29,15,57,33.50
2008,06,29,15,58,33.60
2008,06,29,15,59,33.70
2008,06,29,16,00,33.70
2008,06,29,16,01,33.60
2008,06,29,16,02,33.50
2008,06,29,16,03,33.50
2008,06,29,16,04,33.40
2008,06,29,16,05,33.40
2008,06,29,16,06,33.40
2008,06,29,16,07,33.50
2008,06,29,16,08,33.50
2008,06,29,16,09,33.60
2008,06,29,16,10,33.60
2008,06,29,16,11,33.70
2008,06,29,16,12,33.70
2008,06,29,16,13,33.70
2008,06,29,16,14,33.80
2008,06,29,16,15,33.80
2008,06,29,16,16,33.80
2008,06,29,16,17,33.80
2008,06,29,16,18,33.80
2008,06,29,16,19,33.80
2008,06,29,16,20,33.70
2008,06,29,16,21,33.60
2008,06,29,16,22,33.50
2008,06,29,16,23,33.40
2008,06,29,16,24,33.40
2008,06,29,16,25,33.30
2008,06,29,16,26,33.30
2008,06,29,16,27,33.30
2008,06,29,16,28,33.30
2008,06,29,16,29,33.20
2008,06,29,16,30,33.20
2008,06,29,16,31,33.20
2008,06,29,16,32,33.20
2008,06,29,16,33,33.20
2008,06,29,16,34,33.20
2008,06,29,16,35,33.10
2008,06,29,16,36,33.10
2008,06,29,16,37,33.10
2008,06,29,16,38,33.10
2008,06,29,16,39,33.10
2008,06,29,16,40,33.10
2008,06,29,16,41,33.10
2008,06,29,16,42,33.20
2008,06,29,16,43,33.20
2008,06,29,16,44,33.20
2008,06,29,16,45,33.20
2008,06,29,16,46,33.20
2008,06,29,16,47,33.30
2008,06,29,16,48,33.20
2008,06,29,16,49,33.20
2008,06,29,16,50,33.20
2008,06,29,16,51,33.10
2008,06,29,16,52,33.10
2008,06,29,16,53,33.10
2008,06,29,16,54,33.10
2008,06,29,16,55,33.10
2008,06,29,16,56,33.10
2008,06,29,16,57,33.10
2008,06,29,16,58,33.10
2008,06,29,16,59,33.00
2008,06,29,17,00,33.00
2008,06,29,17,01,33.00
2008,06,29,17,02,32.90
2008,06,29,17,03,32.90
2008,06,29,17,04,33.00
2008,06,29,17,05,33.10
2008,06,29,17,06,33.10
2008,06,29,17,07,33.00
2008,06,29,17,08,33.00
2008,06,29,17,09,32.90
2008,06,29,17,10,32.90
2008,06,29,17,11,32.80
2008,06,29,17,12,32.80
2008,06,29,17,13,32.80
2008,06,29,17,14,32.80
2008,06,29,17,15,32.80
2008,06,29,17,16,32.80
2008,06,29,17,17,32.80
2008,06,29,17,18,32.90
2008,06,29,17,19,32.90
2008,06,29,17,20,32.90